Home > Weather > Budapest > Past weeks

Flag for Hungary Past Weather in Budapest, Hungary — Yesterday and Last 2 Weeks

Now
79 °F

Sunny.


Feels Like: 80 °F
Forecast: 60 / 82 °F
Wind: 2 mph from North

Location: Ferenc Liszt International Airport

Current Time: Aug 29, 2016 at 11:09:58 AM

Latest Report: Aug 29, 2016 at 10:30 AM


Visibility: 10 mi

Pressure: 30.04 "Hg

Humidity: 51%

Dew Point: 59 °F

Location of BudapestLocation

Past Weather in Budapest — Graph

°F

Budapest Temperature Yesterday

Maximum temperature yesterday: 84 °F (at 2:00 PM)
Minimum temperature yesterday: 55 °F (at 4:00 AM)
Average temperature yesterday: 71 °F

High & Low Weather Summary for the Past Weeks

 TemperatureHumidityPressure
High84 °F (Aug 15, 2:00 PM)100% (Aug 17, 8:30 AM)30.27 "Hg (Aug 17, 8:30 AM)
Low55 °F (Aug 18, 6:00 AM)35% (Aug 27, 4:30 PM)29.86 "Hg (Aug 17, 4:00 AM)
Average69 °F71%30.09 "Hg
* Reported Aug 14 10:00 AM — Aug 29 10:00 AM, Budapest, Weather by CustomWeather, © 2016

Note: Actual official high and low records may vary slightly from our data, if they occured in-between our weather recording intervals... More about our weather records

Advertising

Budapest Weather History for the Previous 24 Hours

Scroll right to see more
 ConditionsComfort  
Time TempWeatherWind HumidityBarometerVisibility
10:00 AM
Mon, Aug 29
81 °FSunny.2 mph51%30.04 "Hg10 mi
9:30 AM77 °FSunny.2 mph61%30.04 "Hg10 mi
9:00 AM73 °FSunny.2 mph69%30.04 "Hg10 mi
8:30 AM70 °FSunny.2 mph78%30.04 "Hg10 mi
8:00 AM66 °FSunny.2 mph83%30.04 "Hg10 mi
7:30 AM64 °FFog.No wind88%30.04 "HgN/A
7:00 AM61 °FFog.1 mph88%30.04 "HgN/A
6:30 AM55 °FClear.3 mph100%30.04 "Hg10 mi
6:00 AM59 °FClear.6 mph94%30.04 "Hg10 mi
5:30 AM57 °FClear.2 mph94%30.04 "Hg10 mi
5:00 AM57 °FClear.5 mph94%30.04 "Hg10 mi
4:30 AM57 °FClear.3 mph94%30.04 "Hg10 mi
4:00 AM57 °FClear.1 mph94%30.04 "Hg10 mi
3:30 AM59 °FClear.No wind94%30.04 "Hg10 mi
3:00 AM59 °FClear.2 mph88%30.04 "Hg10 mi
2:30 AM59 °FClear.1 mph100%30.04 "Hg10 mi
2:00 AM59 °FClear.3 mph100%30.04 "Hg10 mi
1:30 AM61 °FClear.2 mph94%30.07 "Hg10 mi
1:00 AM61 °FClear.3 mph88%30.07 "Hg10 mi
12:30 AM63 °FClear.1 mph88%30.07 "Hg10 mi
12:00 AM63 °FClear.1 mph88%30.07 "Hg10 mi
11:30 PM
Sun, Aug 28
64 °FClear.2 mph88%30.07 "Hg10 mi
11:00 PM64 °FClear.1 mph83%30.07 "Hg10 mi
10:30 PM64 °FClear.2 mph83%30.07 "Hg10 mi
10:00 PM64 °FClear.3 mph88%30.07 "Hg10 mi
9:30 PM66 °FClear.2 mph83%30.07 "Hg10 mi
9:00 PM70 °FClear.1 mph73%30.07 "Hg10 mi
8:30 PM70 °FClear.3 mph73%30.04 "Hg10 mi
8:00 PM72 °FSunny.1 mph65%30.04 "Hg10 mi
7:30 PM79 °FSunny.3 mph54%30.04 "Hg10 mi
7:00 PM81 °FSunny.5 mph51%30.04 "Hg10 mi
6:30 PM84 °FSunny.6 mph43%30.04 "Hg10 mi
6:00 PM84 °FSunny.5 mph40%30.07 "Hg10 mi
5:30 PM84 °FPassing clouds.6 mph40%30.07 "HgN/A
5:00 PM84 °FSunny.5 mph37%30.07 "Hg10 mi
4:30 PM84 °FPassing clouds.7 mph40%30.07 "HgN/A
4:00 PM84 °FPassing clouds.6 mph40%30.09 "HgN/A
3:30 PM84 °FPassing clouds.5 mph40%30.09 "HgN/A
3:00 PM84 °FSunny.3 mph40%30.09 "Hg10 mi
2:30 PM84 °FSunny.5 mph40%30.09 "Hg10 mi
2:00 PM84 °FSunny.5 mph43%30.12 "Hg10 mi
1:30 PM82 °FPassing clouds.8 mph42%30.12 "HgN/A
1:00 PM82 °FPassing clouds.8 mph45%30.12 "HgN/A
12:30 PM81 °FPassing clouds.5 mph48%30.12 "HgN/A
12:00 PM81 °FPassing clouds.6 mph54%30.12 "HgN/A
11:30 AM79 °FPassing clouds.6 mph54%30.15 "HgN/A
11:00 AM79 °FPassing clouds.6 mph58%30.15 "HgN/A
Weather by CustomWeather, © 2016

See weather overviewHow to use our weather pages